Location: Chochol
(49.7771°N, 14.9780°E)
Time: 02:31:47
(UTC+00:00)

Cosmos 2082 Rocket - Pass Details

Date: 09 April 2020
Orbit: 831 x 855 km, 71.0° (Epoch: 03 June)

Event Time Altitude Azimuth Distance (km) Brightness Sun altitude
Exits shadow 22:15:16 44° 289° (WNW) 1,147 3.0 -31.3°
Maximum altitude 22:15:51 46° 307° (NW) 1,123 3.0 -31.4°
Drops below altitude 10° 22:21:18 10° 21° (NNE) 2,475 5.3 -31.5°
Sets 22:23:53 0° 27° (NNE) 3,418 6.1 -31.6°
